N47VC KFOE-KSUS

Flight info

Callsign N47VC
Flight time 0h 53m
Altitude 29000
Route COU DIXEE
Aircraft SF50/L-SDGRWY/L

Departure

Time 2026-04-27 04:51
Airport Topeka Regional Airport (KFOE)

Arrival

Time 2026-04-27 05:45
Airport Spirit of St Louis Airport (KSUS)
Time Latitude Longitude Altitude Speed Heading
2026-04-27 04:33 38.94530 -95.67420 1072 ft 0 kts 56°
2026-04-27 04:44 38.94545 -95.67397 1072 ft 8 kts 39°
2026-04-27 04:44 38.94593 -95.67383 1070 ft 6 kts 358°
2026-04-27 04:44 38.94652 -95.67383 1069 ft 17 kts 357°
2026-04-27 04:45 38.94743 -95.67331 1067 ft 15 kts 79°
2026-04-27 04:45 38.94764 -95.67186 1066 ft 18 kts 32°
2026-04-27 04:45 38.94899 -95.67181 1063 ft 22 kts 358°
2026-04-27 04:45 38.95064 -95.67187 1061 ft 25 kts 358°
2026-04-27 04:46 38.95252 -95.67194 1059 ft 29 kts 358°
2026-04-27 04:46 38.95459 -95.67189 1059 ft 31 kts 359°
2026-04-27 04:46 38.95675 -95.67197 1060 ft 32 kts 359°
2026-04-27 04:46 38.95857 -95.67350 1061 ft 33 kts 317°
2026-04-27 04:47 38.96028 -95.67554 1062 ft 34 kts 318°
2026-04-27 04:47 38.96207 -95.67764 1064 ft 35 kts 317°
2026-04-27 04:47 38.96361 -95.67957 1065 ft 22 kts 328°
2026-04-27 04:47 38.96472 -95.67906 1065 ft 12 kts 49°
2026-04-27 04:48 38.96475 -95.67902 1065 ft 0 kts 49°
2026-04-27 04:49 38.96486 -95.67885 1065 ft 7 kts 49°
2026-04-27 04:49 38.96525 -95.67782 1064 ft 17 kts 92°
2026-04-27 04:50 38.96499 -95.67730 1064 ft 0 kts 136°
2026-04-27 04:50 38.96493 -95.67722 1064 ft 14 kts 136°
2026-04-27 04:50 38.96247 -95.67427 1062 ft 80 kts 137°
2026-04-27 04:51 38.95749 -95.66868 1308 ft 103 kts 137°
2026-04-27 04:51 38.95126 -95.66242 1602 ft 125 kts 140°
2026-04-27 04:51 38.94423 -95.65480 2028 ft 141 kts 137°
2026-04-27 04:51 38.93662 -95.64587 2495 ft 155 kts 137°
2026-04-27 04:52 38.92863 -95.63625 3104 ft 158 kts 137°
2026-04-27 04:52 38.92073 -95.62633 3702 ft 159 kts 137°
2026-04-27 04:52 38.91284 -95.61630 4296 ft 160 kts 137°
2026-04-27 04:52 38.90497 -95.60615 4846 ft 161 kts 137°
2026-04-27 04:53 38.89698 -95.59579 5368 ft 164 kts 137°
2026-04-27 04:53 38.89118 -95.58310 5854 ft 173 kts 104°
2026-04-27 04:53 38.89115 -95.56744 6327 ft 178 kts 94°
2026-04-27 04:53 38.89109 -95.55174 6792 ft 178 kts 96°
2026-04-27 04:54 38.89085 -95.53571 7248 ft 181 kts 96°
2026-04-27 04:54 38.89066 -95.51944 7707 ft 183 kts 96°
2026-04-27 04:54 38.89049 -95.50300 8151 ft 185 kts 95°
2026-04-27 04:54 38.89025 -95.48635 8585 ft 187 kts 96°
2026-04-27 04:55 38.89012 -95.46971 9019 ft 189 kts 95°
2026-04-27 04:55 38.88995 -95.45272 9457 ft 191 kts 96°
2026-04-27 04:55 38.88978 -95.43563 9867 ft 193 kts 95°
2026-04-27 04:55 38.88960 -95.41834 10248 ft 195 kts 95°
2026-04-27 04:56 38.88941 -95.40085 10647 ft 197 kts 95°
2026-04-27 04:56 38.88921 -95.38316 11046 ft 199 kts 95°
2026-04-27 04:56 38.88903 -95.36535 11451 ft 200 kts 95°
2026-04-27 04:56 38.88882 -95.34734 11848 ft 203 kts 94°
2026-04-27 04:57 38.88862 -95.32912 12253 ft 205 kts 94°
2026-04-27 04:57 38.88840 -95.31066 12670 ft 207 kts 94°
2026-04-27 04:57 38.88819 -95.29230 13068 ft 209 kts 94°
2026-04-27 04:57 38.88796 -95.27349 13466 ft 212 kts 94°
2026-04-27 04:58 38.88773 -95.25443 13831 ft 214 kts 94°
2026-04-27 04:58 38.88747 -95.23521 14206 ft 216 kts 94°
2026-04-27 04:58 38.88723 -95.21588 14568 ft 218 kts 93°
2026-04-27 04:58 38.88698 -95.19632 14904 ft 220 kts 94°
2026-04-27 04:59 38.88672 -95.17685 15267 ft 222 kts 93°
2026-04-27 04:59 38.88645 -95.15692 15640 ft 224 kts 93°
2026-04-27 04:59 38.88619 -95.13681 16003 ft 226 kts 93°
2026-04-27 04:59 38.88590 -95.11650 16375 ft 228 kts 93°
2026-04-27 05:00 38.88563 -95.09597 16741 ft 230 kts 93°
2026-04-27 05:00 38.88533 -95.07560 17099 ft 233 kts 93°
2026-04-27 05:00 38.88505 -95.05470 17481 ft 234 kts 93°
2026-04-27 05:00 38.88474 -95.03363 17844 ft 237 kts 93°
2026-04-27 05:01 38.88446 -95.01249 18189 ft 239 kts 92°
2026-04-27 05:01 38.88414 -94.99093 18521 ft 241 kts 92°
2026-04-27 05:01 38.88394 -94.97664 18734 ft 242 kts 92°
2026-04-27 05:01 38.88362 -94.95491 19065 ft 244 kts 92°
2026-04-27 05:02 38.88329 -94.93300 19393 ft 246 kts 92°
2026-04-27 05:02 38.88286 -94.90369 19826 ft 249 kts 92°
2026-04-27 05:02 38.88228 -94.86618 20389 ft 253 kts 92°
2026-04-27 05:03 38.88193 -94.84353 20725 ft 255 kts 92°
2026-04-27 05:03 38.88157 -94.82103 21096 ft 255 kts 92°
2026-04-27 05:03 38.88121 -94.79820 21484 ft 256 kts 92°
2026-04-27 05:03 38.88082 -94.77528 21855 ft 257 kts 92°
2026-04-27 05:04 38.88044 -94.75231 22240 ft 257 kts 92°
2026-04-27 05:04 38.88005 -94.72930 22621 ft 258 kts 92°
2026-04-27 05:04 38.87965 -94.70624 22999 ft 259 kts 92°
2026-04-27 05:04 38.87926 -94.68308 23377 ft 259 kts 92°
2026-04-27 05:05 38.87884 -94.66021 23701 ft 260 kts 92°
2026-04-27 05:05 38.87845 -94.63697 24163 ft 260 kts 92°
2026-04-27 05:05 38.87803 -94.61375 24488 ft 260 kts 92°
2026-04-27 05:05 38.87760 -94.59053 24805 ft 261 kts 92°
2026-04-27 05:06 38.87718 -94.56723 25125 ft 261 kts 91°
2026-04-27 05:06 38.87674 -94.54396 25439 ft 261 kts 91°
2026-04-27 05:06 38.87631 -94.52058 25740 ft 262 kts 91°
2026-04-27 05:06 38.87586 -94.49719 26051 ft 262 kts 91°
2026-04-27 05:07 38.87544 -94.47371 26358 ft 263 kts 91°
2026-04-27 05:07 38.87500 -94.45054 26655 ft 263 kts 91°
2026-04-27 05:07 38.87454 -94.42701 26822 ft 264 kts 91°
2026-04-27 05:07 38.87409 -94.40344 27127 ft 264 kts 90°
2026-04-27 05:08 38.87363 -94.37975 27423 ft 265 kts 90°
2026-04-27 05:08 38.87316 -94.35604 27713 ft 266 kts 90°
2026-04-27 05:08 38.87267 -94.33227 28008 ft 266 kts 90°
2026-04-27 05:08 38.87221 -94.30840 28289 ft 267 kts 90°
2026-04-27 05:09 38.87172 -94.28477 28580 ft 268 kts 90°
2026-04-27 05:09 38.87123 -94.26074 28784 ft 273 kts 89°
2026-04-27 05:09 38.87073 -94.23578 28789 ft 285 kts 90°
2026-04-27 05:09 38.87018 -94.20985 28796 ft 296 kts 90°
2026-04-27 05:10 38.86960 -94.18296 28790 ft 306 kts 90°
2026-04-27 05:10 38.86838 -94.12698 28788 ft 321 kts 90°
2026-04-27 05:11 38.86706 -94.06871 28806 ft 331 kts 90°
2026-04-27 05:11 38.86572 -94.00924 28811 ft 339 kts 90°
2026-04-27 05:12 38.86428 -93.94825 28816 ft 345 kts 90°
2026-04-27 05:12 38.86282 -93.88623 28821 ft 351 kts 90°
2026-04-27 05:13 38.86127 -93.82317 28826 ft 356 kts 89°
2026-04-27 05:13 38.85970 -93.75963 28826 ft 360 kts 90°
2026-04-27 05:14 38.85804 -93.69498 28821 ft 364 kts 90°
2026-04-27 05:14 38.85636 -93.63011 28822 ft 362 kts 90°
2026-04-27 05:15 38.85466 -93.56548 28828 ft 362 kts 90°
2026-04-27 05:15 38.85291 -93.50092 28822 ft 362 kts 91°
2026-04-27 05:16 38.85114 -93.43671 28821 ft 362 kts 91°
2026-04-27 05:16 38.84933 -93.37217 28814 ft 362 kts 91°
2026-04-27 05:17 38.84749 -93.30776 28828 ft 361 kts 91°
2026-04-27 05:17 38.84561 -93.24348 28826 ft 360 kts 91°
2026-04-27 05:18 38.84371 -93.17968 28830 ft 359 kts 92°
2026-04-27 05:18 38.84177 -93.11557 28828 ft 358 kts 92°
2026-04-27 05:19 38.83978 -93.05163 28829 ft 358 kts 92°
2026-04-27 05:19 38.83779 -92.98823 28824 ft 357 kts 92°
2026-04-27 05:20 38.83575 -92.92458 28821 ft 356 kts 92°
2026-04-27 05:20 38.83368 -92.86110 28825 ft 355 kts 93°
2026-04-27 05:21 38.83157 -92.79785 28825 ft 354 kts 93°
2026-04-27 05:21 38.82947 -92.73511 28827 ft 353 kts 93°
2026-04-27 05:22 38.82731 -92.67209 28828 ft 352 kts 93°
2026-04-27 05:22 38.82513 -92.60924 28829 ft 352 kts 94°
2026-04-27 05:23 38.82294 -92.54666 28828 ft 350 kts 94°
2026-04-27 05:23 38.82071 -92.48451 28834 ft 350 kts 94°
2026-04-27 05:24 38.81846 -92.42211 28859 ft 350 kts 94°
2026-04-27 05:24 38.81615 -92.35963 28863 ft 350 kts 94°
2026-04-27 05:25 38.81384 -92.29767 28865 ft 349 kts 94°
2026-04-27 05:25 38.81148 -92.23534 28864 ft 349 kts 94°
2026-04-27 05:25 38.80791 -92.20473 28861 ft 346 kts 108°
2026-04-27 05:26 38.80111 -92.17522 28865 ft 345 kts 109°
2026-04-27 05:26 38.78809 -92.11628 28862 ft 345 kts 109°
2026-04-27 05:27 38.77475 -92.05714 28861 ft 345 kts 109°
2026-04-27 05:27 38.76145 -91.99790 28863 ft 345 kts 109°
2026-04-27 05:28 38.74809 -91.93869 28866 ft 345 kts 109°
2026-04-27 05:28 38.73479 -91.87990 28867 ft 345 kts 109°
2026-04-27 05:29 38.72142 -91.82086 28877 ft 345 kts 109°
2026-04-27 05:29 38.70800 -91.76182 28876 ft 345 kts 109°
2026-04-27 05:30 38.69456 -91.70290 28874 ft 344 kts 109°
2026-04-27 05:30 38.68118 -91.64433 28880 ft 344 kts 109°
2026-04-27 05:31 38.66768 -91.58540 28885 ft 345 kts 109°
2026-04-27 05:31 38.65416 -91.52641 28884 ft 345 kts 109°
2026-04-27 05:32 38.64099 -91.46904 28232 ft 325 kts 109°
2026-04-27 05:32 38.63452 -91.44108 26948 ft 329 kts 109°
2026-04-27 05:32 38.62800 -91.41300 25756 ft 328 kts 109°
2026-04-27 05:32 38.62157 -91.38509 24549 ft 326 kts 109°
2026-04-27 05:33 38.61515 -91.35727 23286 ft 325 kts 109°
2026-04-27 05:33 38.60872 -91.32959 21716 ft 324 kts 108°
2026-04-27 05:33 38.60241 -91.30224 20077 ft 324 kts 107°
2026-04-27 05:33 38.60037 -91.27343 18357 ft 327 kts 84°
2026-04-27 05:34 38.60643 -91.24566 16489 ft 323 kts 64°
2026-04-27 05:34 38.61675 -91.22045 14748 ft 316 kts 59°
2026-04-27 05:34 38.62690 -91.19579 13056 ft 310 kts 64°
2026-04-27 05:34 38.63470 -91.17016 11970 ft 306 kts 72°
2026-04-27 05:35 38.64147 -91.14450 11919 ft 306 kts 71°
2026-04-27 05:35 38.64914 -91.11934 11920 ft 309 kts 68°
2026-04-27 05:35 38.65732 -91.09379 11921 ft 310 kts 69°
2026-04-27 05:35 38.66514 -91.06796 11924 ft 311 kts 70°
2026-04-27 05:36 38.67261 -91.04296 10785 ft 294 kts 70°
2026-04-27 05:36 38.67997 -91.01879 9249 ft 290 kts 71°
2026-04-27 05:36 38.68726 -90.99481 8254 ft 289 kts 72°
2026-04-27 05:36 38.69444 -90.97086 7287 ft 287 kts 73°
2026-04-27 05:37 38.69797 -90.94648 6329 ft 277 kts 96°
2026-04-27 05:37 38.69339 -90.92337 5334 ft 261 kts 120°
2026-04-27 05:37 38.68307 -90.90538 4371 ft 245 kts 139°
2026-04-27 05:37 38.66948 -90.89399 3455 ft 220 kts 157°
2026-04-27 05:38 38.65540 -90.88932 2607 ft 201 kts 172°
2026-04-27 05:38 38.64188 -90.89028 2322 ft 189 kts 187°
2026-04-27 05:38 38.62945 -90.89560 2310 ft 191 kts 201°
2026-04-27 05:38 38.61845 -90.90519 2312 ft 197 kts 213°
2026-04-27 05:39 38.60692 -90.91399 2309 ft 191 kts 192°
2026-04-27 05:39 38.59384 -90.91464 2318 ft 187 kts 168°
2026-04-27 05:39 38.58222 -90.90791 2307 ft 183 kts 144°
2026-04-27 05:39 38.57437 -90.89574 2312 ft 176 kts 122°
2026-04-27 05:40 38.57128 -90.88072 2311 ft 178 kts 99°
2026-04-27 05:40 38.57367 -90.86485 2311 ft 189 kts 74°
2026-04-27 05:40 38.58134 -90.85130 2316 ft 193 kts 54°
2026-04-27 05:40 38.59046 -90.83826 2432 ft 195 kts 56°
2026-04-27 05:41 38.59924 -90.82519 2392 ft 195 kts 56°
2026-04-27 05:41 38.60821 -90.81205 2405 ft 196 kts 56°
2026-04-27 05:41 38.61716 -90.79895 2403 ft 194 kts 56°
2026-04-27 05:41 38.62613 -90.78587 2401 ft 195 kts 56°
2026-04-27 05:42 38.63486 -90.77291 2403 ft 185 kts 61°
2026-04-27 05:42 38.64049 -90.75928 2393 ft 164 kts 82°
2026-04-27 05:42 38.64321 -90.74551 2397 ft 157 kts 85°
2026-04-27 05:42 38.64566 -90.73207 2390 ft 158 kts 86°
2026-04-27 05:43 38.64804 -90.71867 2229 ft 149 kts 87°
2026-04-27 05:43 38.65003 -90.70596 1582 ft 144 kts 86°
2026-04-27 05:43 38.65213 -90.69353 1492 ft 143 kts 84°
2026-04-27 05:43 38.65410 -90.68132 1397 ft 135 kts 83°
2026-04-27 05:44 38.65626 -90.66965 818 ft 132 kts 81°
2026-04-27 05:44 38.65789 -90.65868 479 ft 120 kts 78°
2026-04-27 05:44 38.65943 -90.64947 471 ft 93 kts 78°
2026-04-27 05:44 38.66062 -90.64213 464 ft 76 kts 78°
2026-04-27 05:45 38.66139 -90.63771 461 ft 19 kts 66°
2026-04-27 05:45 38.66223 -90.63743 462 ft 0 kts 343°